SCP
0 0 0 0 0 0 0 0 1 1 1 1 1 1 1 0 0 0 0 0 0 0 0 0 0 0 0 0 0 0 0 0 0 0 0 0 0 0 0 0 0 0 0
0 0 0 0 0 0 0 0 1 1 1 1 1 1 1 0 0 0 0 0 0 0 0 0 0 0 0 0 0 0 0 0 0 0 0 0 0 0 0 0 0 0 0
0 0 0 1 0 0 0 0 1 1 1 1 1 1 1 1 0 0 0 0 0 0 0 0 0 0 0 0 0 0 0 0 0 0 0 0 0 0 0 0 0 0 0
0 0 1 1 0 0 0 1 1 1 1 1 1 1 1 1 0 0 0 0 0 0 0 0 0 0 0 0 0 0 0 0 0 0 0 0 0 0 0 0 0 0 0
1 1 1 1 1 0 0 1 1 1 1 1 1 1 1 1 0 0 0 0 0 0 0 0 0 0 0 0 0 0 0 0 0 0 0 0 0 0 0 0 0 0 0
1 1 1 1 1 0 0 0 0 0 1 1 1 1 1 1 1 0 0 0 0 0 0 0 0 0 0 0 0 0 0 0 0 0 0 0 0 0 0 0 0 0 0
1 1 1 1 0 0 0 0 0 0 0 1 1 1 1 1 1 1 0 0 0 0 0 0 0 0 0 0 0 0 0 0 0 0 0 0 0 0 0 0 0 0 0
1 1 1 0 0 0 0 0 1 1 0 1 1 1 0 1 1 1 0 0 0 0 0 0 0 0 0 0 0 0 0 0 0 0 0 0 0 0 0 0 0 0 0
1 1 1 0 0 0 0 0 0 1 0 0 1 0 0 0 1 1 0 0 0 0 0 0 0 0 0 0 0 0 0 0 0 0 0 0 0 0 0 0 0 0 0
1 1 0 0 0 0 0 0 0 0 0 0 0 0 0 0 0 0 0 0 0 0 0 0 0 0 0 0 0 0 0 0 0 0 0 0 0 0 0 0 0 0 0
1 0 0 0 0 0 0 0 0 0 0 0 0 0 0 0 0 0 0 0 0 0 0 0 0 0 0 0 0 0 0 0 0 0 0 0 0 0 0 0 0 0 0
0 0 0 0 0 0 0 0 0 0 0 0 0 0 0 0 0 0 0 0 0 0 0 0 0 0 0 0 0 0 0 0 0 0 0 0 0 0 0 0 0 0 0
0 0 0 0 0 0 0 0 0 0 0 0 0 0 0 0 0 0 0 0 0 0 0 0 0 0 0 0 0 0 0 0 0 0 0 0 0 0 0 0 0 0 0
0 0 0 0 0 0 0 0 0 0 0 0 0 0 0 0 0 0 0 0 0 0 0 0 0 0 0 0 0 0 0 0 0 0 0 0 0 0 0 0 0 0 0
0 0 0 0 0 0 0 0 0 0 0 0 0 0 0 0 0 0 0 0 0 0 0 0 0 0 0 0 0 0 0 0 0 0 0 0 0 0 0 0 0 0 0
0 0 0 0 0 0 0 0 0 0 0 0 0 0 0 0 0 0 0 0 0 0 0 0 0 0 0 0 0 0 0 0 0 0 0 0 0 0 0 0 0 0 0
0 0 0 0 0 0 0 0 0 0 0 0 0 0 0 0 0 0 0 0 0 0 0 0 0 0 0 0 0 0 0 0 0 0 0 0 0 0 0 0 0 0 0
0 0 0 0 0 0 0 0 0 0 0 0 0 0 0 0 0 0 0 0 0 0 0 0 0 0 0 0 0 0 0 0 0 0 0 0 0 0 0 0 0 0 0
0 0 0 0 0 0 0 0 0 0 0 0 0 0 0 0 0 0 0 0 0 0 0 0 0 0 0 0 0 0 0 0 0 0 0 0 0 0 0 0 0 0 0
0 0 0 0 0 0 0 0 0 0 0 0 0 0 0 0 0 0 0 0 0 0 0 0 0 0 0 0 0 0 0 0 0 0 0 0 0 0 0 0 0 0 0
0 0 0 0 0 0 0 0 0 0 0 0 0 0 0 0 0 0 0 0 0 0 0 0 0 0 0 0 0 0 0 0 0 0 0 0 0 0 0 0 0 0 0
0 0 0 0 0 0 0 0 0 0 0 0 0 0 0 0 0 0 0 0 0 0 0 0 0 0 0 0 0 0 0 0 0 0 0 0 0 0 0 0 0 0 0
0 0 0 0 0 0 0 0 0 0 0 0 0 0 0 0 0 0 0 0 0 0 0 0 0 0 0 0 0 0 0 0 0 0 0 0 0 0 0 0 0 0 0
0 0 0 0 0 0 0 0 0 0 0 0 0 0 0 0 0 0 0 0 0 0 0 0 0 0 0 0 0 0 0 0 0 0 0 0 0 0 0 0 0 0 0
0 0 0 0 0 0 0 0 0 0 0 0 0 0 0 0 0 0 0 0 0 0 0 0 0 0 0 0 0 0 0 0 0 0 0 0 0 0 0 0 0 0 0
0 0 0 0 0 0 0 0 0 0 0 0 0 0 0 0 0 0 0 0 0 0 0 0 0 0 0 0 0 0 0 0 0 0 0 0 0 0 0 0 0 0 0
Wind_Speed
2 3 6 8 8 8 8 8 8 8 8 9 10 11 11 11 10 10 10 10 10 9 10 10 10 10 10 10 10 10 10 10 10 10 9 9 9 10 10 10 9 6 11
4 5 7 8 9 8 8 8 8 8 8 8 9 10 10 10 10 10 10 10 10 9 9 10 10 10 10 10 10 10 10 9 9 9 8 7 7 8 9 8 8 5 9
4 5 7 8 8 8 8 8 8 8 8 8 8 9 10 10 10 10 10 9 9 9 9 9 9 10 9 9 9 9 9 9 9 8 7 4 4 7 8 7 8 8 8
4 4 5 7 8 9 8 8 8 8 8 8 8 8 9 9 9 9 9 9 9 9 9 9 9 9 9 8 8 8 8 8 8 7 3 2 2 6 6 6 7 7 7
3 3 4 6 8 8 8 8 8 8 8 7 7 8 8 8 8 8 8 8 8 8 8 8 8 8 8 8 7 7 7 7 7 5 3 2 2 4 5 5 5 6 6
3 3 4 6 6 7 7 8 8 7 7 7 7 7 8 8 8 8 8 7 8 8 8 8 8 7 7 7 7 7 7 6 5 3 2 2 1 3 4 5 5 5 5
3 3 5 6 6 6 6 7 8 7 7 7 7 7 8 8 8 7 7 7 7 7 7 8 8 7 7 6 6 7 7 6 3 2 2 1 1 3 4 4 3 3 3
4 3 4 6 5 5 6 6 7 7 7 7 7 8 8 7 7 7 7 7 7 6 7 7 7 7 6 6 6 6 6 5 4 2 1 1 0 2 3 2 2 2 2
4 3 3 3 4 4 5 5 5 6 6 6 6 7 6 6 6 7 6 7 6 6 6 6 6 5 5 5 5 5 5 5 3 1 1 0 1 1 2 2 2 1 1
2 2 3 2 2 2 2 4 4 5 5 5 5 5 5 5 5 6 5 5 5 5 5 5 6 5 5 5 5 5 5 4 2 1 0 1 1 2 2 1 1 0 0
2 2 2 2 2 2 2 3 3 4 4 4 4 5 4 3 3 3 4 5 5 5 5 5 5 5 4 4 4 5 4 1 1 1 0 1 2 2 1 1 1 1 1
4 3 3 3 3 2 2 2 2 2 3 3 3 4 3 2 2 3 4 5 5 4 4 4 5 4 4 2 3 4 1 1 1 0 1 1 1 1 1 1 0 1 1
4 3 3 3 3 3 2 2 2 2 2 3 3 4 3 3 2 2 2 2 3 3 2 2 2 2 2 2 1 1 1 1 0 0 1 1 1 1 1 1 1 0 0
3 3 3 3 3 3 3 2 2 2 2 2 3 4 3 2 2 2 2 2 2 1 2 1 1 2 2 2 2 2 1 1 0 0 1 1 1 1 1 1 1 0 0
3 3 3 3 3 3 2 2 2 2 3 3 3 3 4 3 3 3 2 2 2 2 2 2 1 2 2 2 1 2 1 1 1 1 0 1 1 1 1 1 1 1 1
3 3 2 3 3 3 3 3 2 3 2 3 3 4 4 4 3 3 3 2 2 2 2 2 2 2 2 1 1 1 2 1 1 1 0 0 1 1 1 1 2 1 2
3 3 2 3 3 3 3 3 2 2 3 2 2 3 4 4 4 3 3 2 2 2 2 1 1 1 1 1 1 1 1 1 1 1 1 0 0 1 1 2 2 2 2
3 4 3 2 3 3 3 3 2 2 3 2 2 2 3 4 5 4 3 3 2 2 2 2 1 1 1 1 1 1 1 1 1 1 1 1 0 0 1 2 2 2 3
3 4 3 2 3 3 3 2 2 2 2 2 2 2 3 3 4 4 3 3 3 2 2 2 1 1 2 1 1 1 1 1 1 1 1 1 1 0 0 2 3 3 3
2 3 3 2 2 3 3 2 2 2 1 1 2 2 3 3 3 3 3 3 3 2 2 2 2 1 2 1 1 1 1 1 1 1 0 1 1 1 1 1 1 2 4
1 2 3 2 2 3 2 2 2 2 1 1 1 2 3 3 3 3 3 2 2 3 3 3 2 2 1 1 2 2 2 2 1 1 0 1 1 1 1 1 1 1 2
1 1 3 3 2 2 2 2 2 2 1 1 1 1 2 2 3 3 3 3 2 2 3 3 2 2 1 2 2 2 1 2 2 1 1 1 1 1 1 1 1 1 1
0 1 2 3 3 2 3 3 3 3 2 1 1 1 1 1 2 3 4 3 3 3 3 3 3 3 2 1 2 3 3 2 1 1 1 1 1 0 1 1 1 1 1
1 1 1 2 3 3 3 4 4 3 2 1 1 0 0 2 2 2 2 3 3 3 3 3 3 3 3 3 1 1 1 3 2 1 2 1 1 1 1 1 1 1 1
1 1 1 3 3 3 3 3 3 2 1 1 1 1 0 0 1 2 2 2 3 2 3 3 3 4 3 3 2 2 2 1 1 2 2 2 2 1 1 1 1 1 1
2 2 2 3 2 3 3 3 3 3 2 2 2 1 0 0 0 0 1 2 2 2 3 3 3 4 3 3 2 2 3 2 2 2 2 2 2 2 1 1 1 1 1
Wind_Direction
198 191 179 156 149 141 135 130 127 122 119 119 125 127 126 125 126 127 125 122 119 116 113 111 109 110 108 107 104 103 103 101 96 92 86 84 87 90 89 85 82 77 86
181 183 170 157 153 148 141 132 128 126 123 122 126 131 131 131 130 131 129 127 124 122 120 117 113 109 105 103 101 101 102 101 97 91 84 80 84 92 92 89 88 88 89
154 168 164 156 152 149 145 138 131 132 132 129 127 130 134 134 134 132 133 132 128 125 123 121 115 112 108 104 103 102 99 98 98 94 88 81 90 96 95 93 92 92 95
146 151 156 154 152 150 145 143 142 140 141 139 135 133 137 138 136 134 134 135 132 128 124 120 117 114 111 110 107 105 104 100 92 91 84 76 87 98 99 98 96 94 97
137 142 149 142 153 152 150 147 147 149 146 147 145 143 142 142 142 140 136 136 131 127 125 123 120 118 115 114 112 110 108 104 90 79 76 76 79 103 102 106 102 98 102
148 149 152 139 150 153 155 154 153 155 158 154 153 150 145 143 143 143 138 132 131 129 128 128 125 123 119 117 115 113 110 102 88 77 75 83 85 110 104 107 112 108 107
159 158 155 143 147 157 162 162 159 158 161 159 154 153 149 145 140 140 139 133 130 131 134 134 132 131 126 123 120 114 106 95 94 87 79 78 118 117 108 106 117 122 112
158 160 156 148 145 158 169 166 162 162 163 161 159 153 152 148 144 138 139 139 139 136 139 139 138 136 135 133 126 116 109 102 100 100 97 94 155 121 113 111 112 125 127
155 153 155 155 149 151 170 166 165 162 161 159 159 156 150 149 145 142 137 141 145 143 140 142 142 138 136 130 121 115 109 98 98 103 117 145 235 155 121 115 120 132 139
148 152 164 156 149 151 173 171 164 163 160 160 159 152 145 142 143 139 135 135 141 143 140 142 143 142 133 125 118 111 104 96 96 99 105 233 220 165 135 125 129 139 209
176 183 176 168 166 165 181 176 162 165 159 154 151 146 140 141 143 142 131 129 131 134 137 138 141 133 120 118 112 108 99 96 111 114 215 246 211 189 165 154 184 242 275
192 199 183 181 175 174 181 165 169 172 160 154 151 150 142 140 141 136 128 123 122 119 125 128 132 125 108 107 104 99 92 104 114 161 241 241 208 204 188 153 222 303 300
196 191 193 188 183 175 172 174 168 162 154 148 151 149 139 130 126 123 128 129 125 119 118 120 119 113 109 110 108 105 110 120 134 210 255 256 242 219 173 134 159 359 360
187 197 195 188 180 178 173 176 170 158 160 158 159 154 147 140 135 138 134 132 131 131 121 109 123 119 110 114 125 129 134 145 170 210 243 251 256 214 195 172 171 168 319
190 203 199 189 185 179 167 177 165 165 172 167 162 161 156 149 149 144 143 141 138 132 132 129 137 134 125 121 133 146 156 163 169 184 249 261 261 266 232 245 241 251 280
201 213 213 198 186 173 174 174 173 166 171 161 166 168 160 154 155 149 149 150 150 146 142 147 152 150 147 145 144 149 154 155 165 163 188 278 310 312 297 284 285 278 284
197 205 216 203 179 169 169 170 168 166 166 162 166 170 165 155 157 154 156 160 163 148 132 127 120 132 131 138 146 151 152 155 159 157 153 142 359 346 329 309 313 314 314
189 190 204 204 181 173 168 160 158 161 159 161 162 164 168 159 159 156 159 170 164 146 138 141 141 137 139 146 163 181 162 159 161 166 142 122 115 15 344 350 341 325 316
197 184 182 186 177 169 157 144 139 146 153 159 158 163 174 169 164 159 165 167 159 148 149 158 145 153 159 163 176 141 106 125 158 135 126 115 106 78 8 359 359 344 335
178 166 158 157 152 148 141 123 119 118 128 132 161 162 164 168 168 157 155 155 157 152 155 156 151 153 149 152 134 79 56 42 85 99 140 92 69 51 35 12 10 353 356
98 136 140 142 135 132 137 139 139 157 158 145 185 164 156 163 167 153 149 152 154 166 170 162 151 146 123 118 93 50 23 33 61 59 61 90 58 44 49 30 30 16 354
108 135 134 142 139 137 143 139 140 139 138 170 176 124 121 157 168 157 154 163 160 156 160 161 147 141 134 117 119 113 42 355 346 12 25 88 56 57 50 37 35 15 359
113 171 157 147 144 134 118 105 93 85 77 85 81 85 85 176 165 156 161 164 170 165 169 174 164 150 160 156 130 134 142 203 286 324 346 9 9 57 13 17 27 0 3
212 172 136 133 127 122 121 121 119 128 152 184 168 174 221 168 145 148 159 169 176 179 175 179 171 159 154 160 142 93 127 149 153 288 308 325 351 14 345 358 2 356 6
153 126 124 118 119 117 116 124 126 121 123 97 96 129 210 144 144 152 161 172 185 189 190 180 163 165 164 163 162 151 108 81 113 156 243 296 330 322 328 328 338 353 359
97 100 104 111 109 119 123 121 124 129 117 96 91 107 21 27 32 173 177 186 193 195 198 190 180 176 177 169 168 167 162 158 169 164 199 227 269 291 319 325 344 350 3